TimeMDT,TemperatureF,Dew PointF,Humidity,Sea Level PressureIn,VisibilityMPH,Wind Direction,Wind SpeedMPH,Gust SpeedMPH,PrecipitationIn,Events,Conditions,WindDirDegrees,DateUTC
12:56 AM,46.9,28.0,48,29.88,10.0,SSW,18.4,32.2,N/A,,Clear,200,2013-10-01 06:56:00
1:56 AM,48.0,28.0,46,29.88,10.0,SSW,23.0,29.9,N/A,,Clear,210,2013-10-01 07:56:00
3:56 AM,46.9,28.0,48,29.90,10.0,SSW,23.0,31.1,N/A,,Clear,200,2013-10-01 09:56:00
4:56 AM,45.0,28.9,53,29.92,10.0,SSW,13.8,-,N/A,,Clear,200,2013-10-01 10:56:00
5:56 AM,45.0,28.9,53,29.93,10.0,SSW,15.0,-,N/A,,Clear,200,2013-10-01 11:56:00
6:56 AM,45.0,28.9,53,29.94,10.0,South,15.0,-,N/A,,Clear,180,2013-10-01 12:56:00
7:56 AM,43.0,28.9,58,29.94,10.0,SSW,15.0,-,N/A,,Clear,200,2013-10-01 13:56:00
8:56 AM,48.9,28.9,46,29.95,10.0,South,12.7,-,N/A,,Clear,180,2013-10-01 14:56:00
9:56 AM,52.0,27.0,38,29.95,10.0,SSW,20.7,-,N/A,,Clear,200,2013-10-01 15:56:00
10:56 AM,54.0,27.0,35,29.96,10.0,SW,24.2,38.0,N/A,,Clear,220,2013-10-01 16:56:00
11:56 AM,57.0,27.0,32,29.96,10.0,SSW,24.2,33.4,N/A,,Mostly Cloudy,210,2013-10-01 17:56:00
12:56 PM,57.0,27.0,32,29.96,10.0,SW,21.9,35.7,N/A,,Partly Cloudy,220,2013-10-01 18:56:00
1:56 PM,57.0,25.0,29,29.96,10.0,SW,21.9,33.4,N/A,,Scattered Clouds,220,2013-10-01 19:56:00
2:56 PM,57.9,24.1,27,29.94,10.0,SW,24.2,35.7,N/A,,Clear,220,2013-10-01 20:56:00
3:56 PM,57.9,21.0,24,29.95,10.0,SW,24.2,31.1,N/A,,Clear,230,2013-10-01 21:56:00
4:56 PM,57.0,21.0,25,29.96,10.0,SW,21.9,31.1,N/A,,Clear,220,2013-10-01 22:56:00
6:56 PM,53.1,25.0,34,29.98,10.0,SW,15.0,23.0,N/A,,Clear,230,2013-10-02 00:56:00
7:56 PM,50.0,26.1,39,30.01,10.0,West,8.1,-,N/A,,Clear,260,2013-10-02 01:56:00
8:56 PM,48.0,26.1,42,30.03,10.0,WSW,8.1,-,N/A,,Clear,250,2013-10-02 02:56:00
9:56 PM,37.0,26.1,65,30.07,10.0,Calm,Calm,-,N/A,,Clear,0,2013-10-02 03:56:00
10:56 PM,35.1,26.1,70,30.07,10.0,SSE,6.9,-,N/A,,Clear,150,2013-10-02 04:56:00
11:56 PM,37.0,27.0,67,30.06,10.0,South,6.9,-,N/A,,Clear,180,2013-10-02 05:56:00